Regional Weather Roundup
Issued by NWS

Home | Current Version | Previous Version | Graphics & Text | Print | Product List | Glossary On
Versions: 1 2 3 4 5 6 7 8 9 10 11 12 13 14 15 16 17 18 19 20 21 22 23 24 25 26 27 28 29 30 31 32 33 34 35 36 37 38 39 40 41 42 43 44 45 46 47 48 49 50
052
ASUS45 KBOU 251710
RWRCO

WEATHER ROUNDUP FOR COLORADO
NATIONAL WEATHER SERVICE DENVER/BOULDER CO
1100 AM MDT FRI MAY 25 2018

NOTE: "FAIR" INDICATES FEW OR NO CLOUDS BELOW 12000 FEET WITH NO
SIGNIFICANT WEATHER AND/OR OBSTRUCTIONS TO VISIBILITY.

COZ001>005-013-030-031-251800-
...NORTHWEST COLORADO...

CITY           SKY/WX    TMP DP  RH WIND       PRES   REMARKS
CRAIG          FAIR      74  37  26 NE8       30.16F
HAYDEN         FAIR      71  36  27 E5        30.20F
MEEKER         FAIR      75  35  23 CALM      30.16F
RANGELY        FAIR      76  31  19 CALM      30.08F
RABBIT EARS PA FAIR      55  23  28 W5        30.46S
STEAMBOAT SPGS FAIR      66  40  38 CALM      30.20F
WALDEN         FAIR      64  28  25 CALM      30.30S
$$

COZ006>008-011-251800-
...WEST CENTRAL VALLEYS...

CITY           SKY/WX    TMP DP  RH WIND       PRES   REMARKS
GRAND JUNCTION FAIR      79  30  16 SE9       30.06F
MONTROSE       FAIR      79  22  12 VRB5      30.15F
EAGLE          FAIR      68  28  22 CALM      30.23F
RIFLE          FAIR      73  33  23 W5        30.13F
DELTA          FAIR      81  20  10 E3        30.12F
NUCLA          FAIR      79  14   8 S18       30.20F
$$

COZ017>023-064>068-251800-
...SOUTHWEST COLORADO...

CITY           SKY/WX    TMP DP  RH WIND       PRES   REMARKS
DURANGO        FAIR      74  19  12 S7        30.25F
CORTEZ         FAIR      76  24  14 SW10      30.20F
PAGOSA SPRINGS FAIR      71   7   8 SE5       30.32S
TELLURIDE      FAIR      68  13  12 CALM      30.38S
WOLF CREEK PAS FAIR      54  14  20 SW12G20   30.62S
$$

COZ009-010-012-014-032>034-037-058>063-251800-
...CENTRAL COLORADO...

CITY           SKY/WX    TMP DP  RH WIND       PRES   REMARKS
ASPEN          FAIR      73  23  15 N9        30.26F
BUENA VISTA    FAIR      70  16  12 SE7       30.29F
COPPER MTN     FAIR      54  18  24 W7        30.56S
BERTHOUD PASS  FAIR      45  34  65 W15G25    30.58S
COTTONWOOD PAS FAIR      68  14  12 SE7       30.42F
GUNNISON       FAIR      64  24  21 N3        30.30F
GRANBY         FAIR      66  36  33 CALM      30.32F
KREMMLING      FAIR      70  32  24 CALM      30.28F
LEADVILLE      FAIR      62  13  14 W10       30.40F
MONARCH PASS   FAIR      52  14  22 MISG      30.67S
SALIDA         FAIR      70  26  19 NE3       30.33F
SUNLIGHT       FAIR      57  21  24 S6        30.50S
WILKERSON PASS FAIR      54  18  24 SW5       30.55S
$$

COZ069>075-251800-
...SAN LUIS VALLEY/SANGRE DE CRISTO MOUNTAINS...

CITY           SKY/WX    TMP DP  RH WIND       PRES   REMARKS
ALAMOSA        FAIR      70  20  15 VRB5      30.29F
DEL NORTE      FAIR      67  26  20 E7        30.32F
LA VETA PASS   FAIR      66  18  15 SW9G17    30.57S
SAGUACHE       NOT AVBL
$$

COZ035-036-038>040-251800-
...NORTHERN COLORADO FRONT RANGE...

CITY           SKY/WX    TMP DP  RH WIND       PRES   REMARKS
DENVER INTL AP FAIR      80  40  23 W5        30.10F
AURORA         NOT AVBL
FRONT RANGE AP MOSUNNY   81  36  19 CALM      30.12F
ERIE MUNI ARPT FAIR      79  40  24 E5        30.13F
BOULDER MUN AP FAIR      73  46  38 CALM      30.09F
CENTENNIAL     FAIR      81  35  19 CALM      30.13F
BROOMFIELD     MOSUNNY   79  37  22 SE6       30.13S
FORT COLLINS   FAIR      75  50  41 VRB5      30.09F
LONGMONT       FAIR      79  44  28 E3        30.10F
$$

COZ041-046-047-076>085-087-088-251800-
...PIKES PEAK/PALMER DIVIDE AND SOUTHERN FOOTHILLS...

CITY           SKY/WX    TMP DP  RH WIND       PRES   REMARKS
COLO. SPRINGS  FAIR      80  35  19 S14       30.17F
A. F. ACADEMY  FAIR      77  30  18 S9        30.18F
SCHRIEVER AFB  NOT AVBL
CHEYENNE MTN   FAIR      77  30  18 SE15      30.17F
ELLICOTT         N/A    N/A N/A N/A S7G16     30.16F
FALCON         FAIR      78  28  16 SE8       30.23S
FORT CARSON    FAIR      82  31  16 S6G18     30.14F
LIMON          FAIR      82  35  18 SE7       30.11S
MONUMENT HILL  FAIR      73  27  17 S9        30.23F
CANON CITY     SUNNY     84  28  13 W7        30.11F
WALSENBURG     FAIR      84  32  15 E7        30.16F
TRINIDAD       FAIR      79  42  26 E5        30.16F
$$

COZ042>045-048>051-090-091-251800-
...NORTHEAST COLORADO...

CITY           SKY/WX    TMP DP  RH WIND       PRES   REMARKS
GREELEY ARPT   FAIR      80  44  27 CALM      30.07F
AKRON          FAIR      79  52  38 W9        30.06F
BURLINGTON     FAIR      85  49  28 NW6       30.04S
WRAY           FAIR      86  48  26 W7        30.00F
YUMA           FAIR      81   1   4 W6        30.03S
STERLING       FAIR      79  55  44 S8        30.01F
HOLYOKE        FAIR      86  46  25 W12       30.00F
FORT MORGAN    FAIR      80  41  24 W7        30.06F
$$

COZ086-089-092>099-251800-
...SOUTHEAST COLORADO...

CITY           SKY/WX    TMP DP  RH WIND       PRES   REMARKS
PUEBLO         FAIR      83  35  18 SW5       30.07F
LA JUNTA       FAIR      83  48  29 NW6       30.07S
LAMAR          FAIR      84  54  35 NW7       30.00F
SPRINGFIELD      N/A     85  45  24 N17       30.03F
$$




USA.gov is the U.S. government's official web portal to all federal, state and local government web resources and services.